SILO ALERT LOG
| Silo ID | Alert Type | Alert Message | Silo Type | Points | Depth (mm) | Strength | Temperature (°C) | Humidity (%) | Height (mm) | Volume (㎥) | Weight (t) | Flag | Time |
|---|---|---|---|---|---|---|---|---|---|---|---|---|---|
| DJHNR12 | Humidity | 습도센서 측정값이 80% 초과 | 호퍼 | 0 | 10500 | 0 | 5.9 | 81.2 | -120 | 0 | 0 | 31 | 2024-01-12 11:39:23.000 |
| DJSAD03 | Humidity | 습도센서 측정값이 80% 초과 | 평 | 442 | 1663 | 6152 | 4 | 84.5 | 7116 | 294.592 | 186.241 | 0 | 2024-01-12 10:39:40.000 |
| DJSAD01 | Humidity | 습도센서 측정값이 80% 초과 | 평 | 467 | 1506 | 7363 | 2.6 | 87.8 | 7273 | 301.112 | 190.363 | 0 | 2024-01-12 10:39:40.000 |
| DJSAD02 | Humidity | 습도센서 측정값이 80% 초과 | 평 | 382 | 1136 | 4294 | 2.8 | 87.7 | 7643 | 316.424 | 200.043 | 11 | 2024-01-12 10:39:39.000 |
| DJSAD05 | Humidity | 습도센서 측정값이 80% 초과 | 평 | 473 | 899 | 15304 | 2.8 | 80.6 | 7880 | 326.221 | 206.237 | 11 | 2024-01-12 10:39:39.000 |
| DJDJD03 | Humidity | 습도센서 측정값이 80% 초과 | 평 | 67 | 4942 | 5031 | 3.7 | 80.6 | 2737 | 331.613 | 209.646 | 0 | 2024-01-12 10:39:39.000 |
| DJSAD11 | Humidity | 습도센서 측정값이 80% 초과 | 평 | 333 | 1638 | 3297 | 1.7 | 80.3 | 5941 | 845.484 | 534.515 | 11 | 2024-01-12 10:39:34.000 |
| DJSSD04 | Temperature | 온도센서 상태 이상 | 평 | 0 | 8200 | 0 | -999 | -999 | -120 | -16.702 | 0 | 31 | 2024-01-12 10:39:33.000 |
| DJSAD16 | Humidity | 습도센서 측정값이 80% 초과 | 평 | 83 | 6517 | 3364 | 5 | 80.9 | 1062 | 105.844 | 66.915 | 11 | 2024-01-12 10:39:33.000 |
| DJSAD12 | Humidity | 습도센서 측정값이 80% 초과 | 평 | 0 | 7700 | 0 | 5.4 | 84.1 | -120 | -17.075 | 0 | 31 | 2024-01-12 10:39:33.000 |
| DJDJD04 | Humidity | 습도센서 측정값이 80% 초과 | 평 | 282 | 4206 | 4425 | 4.2 | 82.1 | 3473 | 420.831 | 266.049 | 11 | 2024-01-12 10:39:33.000 |
| DJSSD05 | Temperature | 온도센서 측정값이 0도 미만 | 평 | 837 | 2550 | 4857 | -45.4 | 43.7 | 5529 | 769.552 | 486.511 | 0 | 2024-01-12 10:39:33.000 |
| DJSSD01 | Humidity | 습도센서 측정값이 80% 초과 | 평 | 796 | 2571 | 4680 | 5.8 | 83.6 | 5508 | 766.707 | 484.712 | 0 | 2024-01-12 10:39:33.000 |
| DJDJD01 | Humidity | 습도센서 측정값이 80% 초과 | 평 | 313 | 6857 | 5993 | 2.4 | 80.3 | 822 | 99.622 | 62.981 | 11 | 2024-01-12 10:39:32.000 |
| DJSAD08 | Humidity | 습도센서 측정값이 80% 초과 | 평 | 573 | 2352 | 4823 | 9 | 83.6 | 5227 | 743.864 | 470.271 | 12 | 2024-01-12 10:39:32.000 |
| DJHNR01 | Humidity | 습도센서 측정값이 80% 초과 | 호퍼 | 471 | 4315 | 4902 | 7.7 | 99.9 | 11064 | 472.28 | 298.575 | 13 | 2024-01-12 10:39:32.000 |
| DJSAD17 | Humidity | 습도센서 측정값이 80% 초과 | 평 | 442 | 3128 | 4875 | 4.4 | 80.8 | 4451 | 443.318 | 280.266 | 0 | 2024-01-12 10:39:31.000 |
| DJSAD18 | Humidity | 습도센서 측정값이 80% 초과 | 평 | 116 | 1436 | 5837 | 5.4 | 80.8 | 6143 | 611.763 | 386.756 | 11 | 2024-01-12 10:39:31.000 |
| DJSSD09 | Temperature | 온도센서 측정값이 0도 미만 | 평 | 115 | 2934 | 3028 | -45.4 | 0 | 4745 | 660.414 | 417.514 | 11 | 2024-01-12 10:39:31.000 |
| DJSSD12 | Temperature | 온도센서 상태 이상 | 호퍼 | 0 | 11350 | 0 | -999 | -999 | -120 | 0 | 0 | 31 | 2024-01-12 10:39:24.000 |
[첫 페이지] [9980] [9981] [9982] [9983] 9984 [9985] [9986] [9987] [9988] [마지막 페이지]